Terminal Aerodrome Forecast
Issued by NWS Rapid City, SD

Home | Current Version | Previous Version | Graphics & Text | Print | Product List | Glossary On
Versions: 1 2 3 4 5 6 7 8 9 10 11 12 13 14 15 16 17
000
FTUS43 KUNR 231600 AAA
TAFRAP
TAF AMD
KRAP 231601Z 2316/2412 36009KT P6SM BKN120
     FM231800 33026G38KT P6SM BKN060
     FM240000 34010KT P6SM SCT150=

USA.gov is the U.S. government's official web portal to all federal, state and local government web resources and services.